Regional Weather Roundup
Issued by NWS

Home | Current Version | Previous Version | Text Only | Print | Product List | Glossary On
Versions: 1 2 3 4 5 6 7 8 9 10 11 12 13 14 15 16 17 18 19 20 21 22 23 24 25 26 27 28 29 30 31 32 33 34 35 36 37 38 39 40 41 42 43 44 45 46 47 48 49 50
000
ASUS43 KBIS 252320
RWRND

NORTH DAKOTA REGIONAL WEATHER ROUNDUP
NATIONAL WEATHER SERVICE BISMARCK ND
600 PM CDT SAT OCT 25 2014

NOTE: "FAIR" INDICATES FEW OR NO CLOUDS BELOW 12,000 FEET WITH NO
SIGNIFICANT WEATHER AND/OR OBSTRUCTIONS TO VISIBILITY.


NDZ001>003-009>011-017-260000-
NORTHWEST NORTH DAKOTA

CITY           SKY/WX    TMP DP  RH WIND       PRES   REMARKS
WILLISTON      CLEAR     62  31  31 SE13      29.94F
MINOT          CLEAR     58  28  32 S7        30.00F
MINOT AFB      CLEAR     57  30  35 SE6       30.00F
$$

NDZ018>021-031>035-040>046-260000-
SOUTHWEST NORTH DAKOTA

CITY           SKY/WX    TMP DP  RH WIND       PRES   REMARKS
BISMARCK       CLEAR     60  29  30 SE8       30.03F
DICKINSON      CLEAR     61  32  33 SE13      29.96F
GARRISON         N/A     58  32  37 E5        30.01F
HETTINGER ARPT CLEAR     62  31  31 SE15      29.99F
$$

NDZ004>008-012>016-024-026-027-054-260000-
NORTHEAST NORTH DAKOTA

CITY           SKY/WX    TMP DP  RH WIND       PRES   REMARKS
GRAND FORKS    CLEAR     56  27  32 W5        30.03F
GRND FRKS AFB  CLEAR     56  27  33 W6        30.04F
DEVILS LAKE    CLEAR     55  30  38 W6        30.02F
$$

NDZ022-023-025-028>030-036>039-047>053-260000-
SOUTHEAST NORTH DAKOTA

CITY           SKY/WX    TMP DP  RH WIND       PRES   REMARKS
FARGO          CLEAR     56  26  31 NW5       30.06F
JAMESTOWN      CLEAR     57  26  30 N3        30.06F
$$




USA.gov is the U.S. government's official web portal to all federal, state and local government web resources and services.